When you browse on this site, cookies collect data to enhance your experience and personalize the content and advertising you see.
Visit our Privacy Policy to learn more. By continuing to use the site, you agree to this use of cookies and data.
  • In France
  • List of Countries
  • For 7 days
  • Water Temperature
  • Weather Map
  • Weather Widgets
  • user-avatar
    Login

    Hourly Weather Winchester

    Today, 29 May, Friday

    Time Temperature Precipitation Wind Pressure Humidity
    00:00 +21°C° 0.3 mm 2 mps 742 mmHg 97%
    01:00 +21°C° 0.3 mm 2 mps 742 mmHg 97%
    02:00 +21°C° 0.3 mm 2 mps 742 mmHg 98%
    03:00 +21°C° 0.3 mm 2 mps 741 mmHg 98%
    04:00 +20°C° 0.3 mm 2 mps 741 mmHg 98%
    05:00 +21°C° 0 mm 2 mps 741 mmHg 97%
    06:00 +23°C° 0 mm 2 mps 742 mmHg 96%
    07:00 +23°C° 0 mm 2 mps 742 mmHg 95%
    08:00 +25°C° 0.1 mm 2 mps 742 mmHg 86%
    09:00 +27°C° 0.1 mm 2 mps 742 mmHg 78%
    10:00 +28°C° 0.1 mm 2 mps 742 mmHg 70%
    11:00 +30°C° 0.2 mm 3 mps 741 mmHg 64%
    12:00 +31°C° 0.2 mm 3 mps 741 mmHg 58%
    13:00 +33°C° 0.2 mm 4 mps 741 mmHg 51%
    14:00 +32°C° 0.1 mm 4 mps 740 mmHg 54%
    15:00 +32°C° 0.1 mm 4 mps 739 mmHg 56%
    16:00 +30°C° 0.1 mm 5 mps 739 mmHg 58%
    17:00 +28°C° 0.4 mm 4 mps 739 mmHg 67%
    18:00 +26°C° 0.4 mm 4 mps 739 mmHg 75%
    19:00 +22°C° 0.4 mm 3 mps 739 mmHg 83%
    20:00 +21°C° 0.2 mm 3 mps 739 mmHg 86%
    21:00 +21°C° 0.2 mm 2 mps 739 mmHg 89%
    22:00 +20°C° 0.2 mm 2 mps 740 mmHg 92%
    23:00 +19°C° 0 mm 2 mps 740 mmHg 92%

    Tomorrow, 30 May, Saturday

    Time Temperature Precipitation Wind Pressure Humidity
    00:00 +19°C° 0 mm 2 mps 740 mmHg 92%
    01:00 +19°C° 0 mm 2 mps 740 mmHg 92%
    02:00 +19°C° 0 mm 1 mps 740 mmHg 93%
    03:00 +19°C° 0 mm 1 mps 740 mmHg 94%
    04:00 +18°C° 0 mm 1 mps 739 mmHg 95%
    05:00 +17°C° 0 mm 2 mps 740 mmHg 92%
    06:00 +17°C° 0 mm 2 mps 741 mmHg 88%
    07:00 +18°C° 0 mm 3 mps 741 mmHg 85%
    08:00 +19°C° 0 mm 3 mps 741 mmHg 75%
    09:00 +21°C° 0 mm 3 mps 741 mmHg 64%
    10:00 +22°C° 0 mm 3 mps 741 mmHg 54%
    11:00 +23°C° 0 mm 4 mps 741 mmHg 51%
    12:00 +25°C° 0 mm 4 mps 741 mmHg 48%
    13:00 +26°C° 0 mm 4 mps 740 mmHg 45%
    14:00 +26°C° 0 mm 4 mps 740 mmHg 46%
    15:00 +26°C° 0 mm 4 mps 740 mmHg 48%
    16:00 +25°C° 0 mm 4 mps 740 mmHg 49%
    17:00 +24°C° 0 mm 3 mps 740 mmHg 55%
    18:00 +21°C° 0 mm 3 mps 740 mmHg 61%
    19:00 +19°C° 0 mm 3 mps 741 mmHg 67%
    20:00 +18°C° 0 mm 3 mps 741 mmHg 69%
    21:00 +17°C° 0 mm 4 mps 742 mmHg 72%
    22:00 +15°C° 0 mm 4 mps 742 mmHg 74%
    23:00 +13°C° 0 mm 4 mps 743 mmHg 73%

    Day after tomorrow, 31 May, Sunday

    Time Temperature Precipitation Wind Pressure Humidity
    00:00 +12°C° 0 mm 3 mps 743 mmHg 72%
    01:00 +10°C° 0 mm 3 mps 743 mmHg 72%
    02:00 +9°C° 0 mm 2 mps 743 mmHg 74%
    03:00 +8°C° 0 mm 2 mps 743 mmHg 77%
    04:00 +7°C° 0 mm 2 mps 743 mmHg 79%
    05:00 +9°C° 0 mm 3 mps 744 mmHg 74%
    06:00 +10°C° 0 mm 3 mps 744 mmHg 69%
    07:00 +11°C° 0 mm 4 mps 745 mmHg 64%
    08:00 +13°C° 0 mm 4 mps 745 mmHg 58%
    09:00 +14°C° 0 mm 4 mps 745 mmHg 51%
    10:00 +15°C° 0 mm 4 mps 745 mmHg 45%
    11:00 +18°C° 0 mm 4 mps 745 mmHg 42%
    12:00 +19°C° 0 mm 4 mps 745 mmHg 40%
    13:00 +20°C° 0 mm 3 mps 744 mmHg 38%
    14:00 +20°C° 0 mm 3 mps 744 mmHg 39%
    15:00 +20°C° 0 mm 3 mps 744 mmHg 39%
    16:00 +21°C° 0 mm 4 mps 743 mmHg 40%
    17:00 +19°C° 0 mm 3 mps 744 mmHg 46%
    18:00 +17°C° 0 mm 3 mps 744 mmHg 53%
    19:00 +14°C° 0 mm 3 mps 744 mmHg 59%
    20:00 +13°C° 0 mm 3 mps 745 mmHg 60%
    21:00 +12°C° 0 mm 3 mps 745 mmHg 61%
    22:00 +12°C° 0 mm 2 mps 746 mmHg 62%
    23:00 +10°C° 0 mm 2 mps 746 mmHg 64%

    1 June, Monday

    Time Temperature Precipitation Wind Pressure Humidity
    00:00 +9°C° 0 mm 2 mps 746 mmHg 67%
    01:00 +9°C° 0 mm 1 mps 746 mmHg 70%
    02:00 +8°C° 0 mm 1 mps 746 mmHg 72%
    03:00 +7°C° 0 mm 1 mps 747 mmHg 73%
    04:00 +7°C° 0 mm 1 mps 747 mmHg 75%
    05:00 +9°C° 0 mm 1 mps 747 mmHg 71%
    06:00 +10°C° 0 mm 1 mps 748 mmHg 67%
    07:00 +12°C° 0 mm 1 mps 748 mmHg 63%
    08:00 +14°C° 0 mm 1 mps 748 mmHg 56%
    09:00 +17°C° 0 mm 2 mps 748 mmHg 49%
    10:00 +19°C° 0 mm 2 mps 748 mmHg 43%
    11:00 +20°C° 0 mm 2 mps 747 mmHg 41%
    12:00 +21°C° 0 mm 2 mps 747 mmHg 39%
    13:00 +22°C° 0 mm 3 mps 746 mmHg 37%
    14:00 +22°C° 0 mm 3 mps 746 mmHg 39%
    15:00 +22°C° 0 mm 3 mps 746 mmHg 40%
    16:00 +22°C° 0 mm 4 mps 746 mmHg 41%
    17:00 +20°C° 0 mm 3 mps 746 mmHg 50%
    18:00 +19°C° 0 mm 3 mps 746 mmHg 58%
    19:00 +17°C° 0 mm 2 mps 746 mmHg 66%
    20:00 +16°C° 0 mm 2 mps 746 mmHg 68%
    21:00 +14°C° 0 mm 2 mps 747 mmHg 71%
    22:00 +13°C° 0 mm 1 mps 747 mmHg 73%
    23:00 +12°C° 0 mm 1 mps 747 mmHg 76%

    2 June, Tuesday

    Time Temperature Precipitation Wind Pressure Humidity
    00:00 +12°C° 0 mm 1 mps 747 mmHg 79%
    01:00 +11°C° 0 mm 1 mps 747 mmHg 82%
    02:00 +11°C° 0 mm 1 mps 747 mmHg 83%
    03:00 +10°C° 0 mm 1 mps 747 mmHg 84%
    04:00 +10°C° 0 mm 1 mps 748 mmHg 85%
    05:00 +11°C° 0 mm 1 mps 748 mmHg 80%
    06:00 +13°C° 0 mm 1 mps 748 mmHg 75%
    07:00 +14°C° 0 mm 0 mps 748 mmHg 70%
    08:00 +17°C° 0 mm 0 mps 748 mmHg 63%
    09:00 +19°C° 0 mm 0 mps 748 mmHg 56%
    10:00 +22°C° 0 mm 0 mps 748 mmHg 48%
    11:00 +24°C° 0 mm 1 mps 747 mmHg 46%
    12:00 +25°C° 0 mm 1 mps 747 mmHg 43%
    13:00 +25°C° 0 mm 1 mps 746 mmHg 41%
    14:00 +25°C° 0 mm 1 mps 746 mmHg 42%
    15:00 +26°C° 0 mm 1 mps 746 mmHg 43%
    16:00 +26°C° 0 mm 2 mps 745 mmHg 44%
    17:00 +24°C° 0 mm 2 mps 745 mmHg 53%
    18:00 +22°C° 0 mm 1 mps 745 mmHg 63%
    19:00 +20°C° 0 mm 1 mps 745 mmHg 72%
    20:00 +20°C° 0 mm 1 mps 745 mmHg 70%
    21:00 +19°C° 0 mm 1 mps 745 mmHg 67%
    22:00 +19°C° 0 mm 1 mps 745 mmHg 64%
    23:00 +18°C° 0.1 mm 1 mps 745 mmHg 71%

    3 June, Wednesday

    Time Temperature Precipitation Wind Pressure Humidity
    00:00 +16°C° 0.1 mm 1 mps 744 mmHg 77%
    01:00 +15°C° 0.1 mm 1 mps 744 mmHg 84%
    02:00 +15°C° 0.2 mm 1 mps 744 mmHg 87%
    03:00 +13°C° 0.2 mm 0 mps 743 mmHg 89%
    04:00 +13°C° 0.2 mm 0 mps 743 mmHg 92%
    05:00 +14°C° 0.1 mm 1 mps 743 mmHg 92%
    06:00 +15°C° 0.1 mm 1 mps 743 mmHg 92%
    07:00 +15°C° 0.1 mm 1 mps 743 mmHg 92%
    08:00 +16°C° 0.2 mm 1 mps 743 mmHg 91%
    09:00 +17°C° 0.2 mm 2 mps 743 mmHg 89%
    10:00 +18°C° 0.2 mm 2 mps 742 mmHg 88%
    11:00 +20°C° 0 mm 2 mps 742 mmHg 78%
    12:00 +24°C° 0 mm 2 mps 742 mmHg 69%
    13:00 +27°C° 0 mm 3 mps 741 mmHg 60%
    14:00 +28°C° 0 mm 2 mps 741 mmHg 59%
    15:00 +29°C° 0 mm 2 mps 740 mmHg 58%
    16:00 +30°C° 0 mm 2 mps 739 mmHg 58%
    17:00 +28°C° 0.4 mm 2 mps 739 mmHg 67%
    18:00 +26°C° 0.4 mm 2 mps 739 mmHg 77%
    19:00 +24°C° 0.4 mm 2 mps 739 mmHg 87%
    20:00 +24°C° 0.7 mm 2 mps 739 mmHg 89%
    21:00 +22°C° 0.7 mm 3 mps 739 mmHg 92%
    22:00 +21°C° 0.7 mm 3 mps 739 mmHg 94%
    23:00 +21°C° 0.1 mm 3 mps 739 mmHg 94%
    Show more